Location: *
(40.7765°S, 106.5327°E)
Time: 16:10:57
(UTC+00:00)

Cosmos 2322 Rocket - Pass Details

Date: 26 May 2022
Orbit: 833 x 850 km, 71.0° (Epoch: 05 July)

Event Time Altitude Azimuth Distance (km) Brightness Sun altitude
Rises 11:34:20 0° 194° (SSW) 3,449 5.4 -21.6°
Reaches altitude 10° 11:37:22 10° 179° (S) 2,504 4.5 -22.2°
Enters shadow 11:38:58 16° 165° (SSE) 2,101 4.0 -22.5°
